Location: Berua Church
(35.0423°N, 88.5987°W)
Time: 20:51:18
(UTC+00:00)

Meteor 1-18 Rocket - Pass Details

Date: 08 December 2019
Orbit: 836 x 909 km, 81.2° (Epoch: 22 January)

Event Time Altitude Azimuth Distance (km) Brightness Sun altitude
Rises 12:09:12 0° 345° (NNW) 3,393 7.0 -8.4°
Reaches altitude 10° 12:11:40 10° 340° (NNW) 2,454 6.2 -7.9°
Maximum altitude 12:17:00 51° 266° (W) 1,051 4.4 -6.9°
Drops below altitude 10° 12:22:21 10° 192° (SSW) 2,456 6.8 -5.9°
Sets 12:24:49 0° 187° (S) 3,395 7.6 -5.5°
